Location: Newark
(34.9500°N, 139.9667°E)
Time: 17:18:15
(UTC+00:00)

Vanguard 1 Rocket - Pass Details

Date: 14 December 2019
Orbit: 650 x 4226 km, 34.3° (Epoch: 21 January)

Event Time Altitude Azimuth Distance (km) Brightness Sun altitude
Rises 17:13:28 0° 281° (W) 4,721 - -53.7°
Reaches altitude 10° 17:18:10 10° 265° (W) 3,139 - -52.7°
Maximum altitude 17:22:52 19° 223° (SW) 2,050 - -51.8°
Drops below altitude 10° 17:26:26 10° 179° (S) 2,278 - -51.0°
Sets 17:29:09 0° 158° (SSE) 3,027 - -50.5°
